Location: Barrio Las Umbrías
(40.4173°N, 4.8685°W)
Time: 12:52:18
(UTC+00:00)

ATLAS CENTAUR R/B - Pass Details

Date: 17 August 2022
Orbit: 444 x 683 km, 64.6° (Epoch: 31 August)

Event Time Altitude Azimuth Distance (km) Brightness Sun altitude
Rises 23:19:56 0° 340° (NNW) 3,014 6.1 -34.4°
Reaches altitude 10° 23:23:10 10° 1° (N) 2,065 5.0 -34.6°
Enters shadow 23:25:10 15° 26° (NNE) 1,713 4.2 -34.7°
